Weather History for Lamoni, IA

Change the Weather History Date:

Tuesday, May 28, 2013

  Actual Average Record
Temperature  
Mean Temperature 72 °F 65 °F  
Max Temperature 82 °F 75 °F 90 °F (1991)
Min Temperature 62 °F 55 °F 42 °F (1992)
Degree Days  
Heating Degree Days 0 3  
Month to date heating degree days 180 159  
Since 1 July heating degree days 6060 6054  
Cooling Degree Days 7 3  
Month to date cooling degree days 52 38  
Year to date cooling degree days 64 45  
Growing Degree Days 22 (Base 50)    
Moisture  
Dew Point 65 °F    
Average Humidity 81    
Maximum Humidity 93    
Minimum Humidity 69    
Precipitation  
Precipitation 1.67 in 0.16 in 1.67 in (2013)
Month to date precipitation 6.23 4.77  
Sea Level Pressure  
Sea Level Pressure 29.72 in    
Wind  
Wind Speed 11 mph (SSW)    
Max Wind Speed 23 mph    
Max Gust Speed 31 mph    
Visibility 8 miles    
Events Rain , Thunderstorm    
T = Trace of Precipitation, MM = Missing Value Source: NWS Daily Summary

Daily Weather History Graph

Daily Weather History Graph

Search for Another Location

Airport:

Trip Planner

Search our weather history database for the weather conditions in past years. The results will help you decide how hot, cold, wet, or windy it might be!

Date:

Astronomy

May. 28, 2013 Rise Set
Actual Time 5:48 AM CDT 8:37 PM CDT
Civil Twilight 5:16 AM CDT 9:09 PM CDT
Nautical Twilight 4:35 AM CDT 9:50 PM CDT
Astronomical Twilight 3:49 AM CDT 10:37 PM CDT
Moon No Moon Rise 9:38 AM CDT (5/28)
Length of Visible Light 15h 53m
Length of Day
14h 48m
Waning Gibbous, 82% of the Moon is Illuminated
May 28
Waning Gibbous
May 31
Last Quarter
Jun 8
New
Jun 16
First Quarter
Jun 23
Full

Hourly Weather History & Observations

Time (CDT) Temp. Heat Index Dew Point Humidity Pressure Visibility Wind Dir Wind Speed Gust Speed Precip Events Conditions
12:46 AM 66.2 °F - 64.4 °F 94% 29.75 in 9.0 mi SSW 10.4 mph - 0.01 in Rain , Thunderstorm Light Rain
12:53 AM 66.9 °F - 64.0 °F 90% 29.75 in 8.0 mi WSW 11.5 mph - 0.01 in Rain , Thunderstorm Light Rain
1:01 AM 66.2 °F - 64.4 °F 94% 29.77 in 2.5 mi WSW 13.8 mph 26.5 mph 0.08 in Rain , Thunderstorm Heavy Thunderstorms and Rain
1:08 AM 66.2 °F - 62.6 °F 88% 29.79 in 2.5 mi SW 19.6 mph 31.1 mph 0.20 in Rain , Thunderstorm Thunderstorms and Rain
1:15 AM 64.4 °F - 60.8 °F 88% 29.76 in 5.0 mi SW 13.8 mph 24.2 mph 0.23 in Rain , Thunderstorm Thunderstorms and Rain
1:45 AM 62.6 °F - 60.8 °F 94% 29.61 in 10.0 mi East 10.4 mph - 0.25 in Rain Light Rain
1:53 AM 63.0 °F - 61.0 °F 93% 29.60 in 10.0 mi ESE 12.7 mph 20.7 mph 0.26 in   Mostly Cloudy
2:53 AM 62.1 °F - 59.0 °F 90% 29.66 in 10.0 mi SSW 8.1 mph - N/A   Partly Cloudy
3:43 AM 62.6 °F - 60.8 °F 94% 29.67 in 10.0 mi South 9.2 mph - N/A Thunderstorm Overcast
3:53 AM 63.0 °F - 60.1 °F 90% 29.65 in 10.0 mi South 11.5 mph - 0.00 in Rain Light Rain
4:03 AM 64.4 °F - 60.8 °F 88% 29.67 in 10.0 mi South 11.5 mph - 0.00 in   Overcast
4:16 AM 64.4 °F - 60.8 °F 88% 29.66 in 10.0 mi South 9.2 mph - 0.00 in   Overcast
4:39 AM 62.6 °F - 60.8 °F 94% 29.68 in 10.0 mi South 9.2 mph - 0.00 in   Overcast
4:53 AM 63.0 °F - 61.0 °F 93% 29.67 in 10.0 mi South 8.1 mph - 0.00 in   Overcast
5:01 AM 62.6 °F - 60.8 °F 94% 29.69 in 10.0 mi South 10.4 mph - N/A   Overcast
5:18 AM 62.6 °F - 60.8 °F 94% 29.69 in 10.0 mi South 9.2 mph - N/A   Overcast
5:53 AM 63.0 °F - 61.0 °F 93% 29.69 in 10.0 mi South 10.4 mph - N/A   Overcast
6:53 AM 64.9 °F - 63.0 °F 93% 29.69 in 7.0 mi South 9.2 mph - N/A   Overcast
7:53 AM 66.9 °F - 64.0 °F 90% 29.68 in 10.0 mi South 6.9 mph - N/A   Overcast
8:53 AM 70.0 °F - 66.0 °F 87% 29.68 in 10.0 mi South 9.2 mph - N/A   Overcast
9:23 AM 71.6 °F - 66.2 °F 83% 29.70 in 10.0 mi SSW 8.1 mph - N/A   Overcast
9:35 AM 71.6 °F - 66.2 °F 83% 29.70 in 10.0 mi SSW 10.4 mph - N/A   Overcast
9:53 AM 73.0 °F - 68.0 °F 84% 29.68 in 10.0 mi SSW 15.0 mph - N/A   Overcast
10:53 AM 73.9 °F - 69.1 °F 85% 29.68 in 10.0 mi SW 11.5 mph - N/A   Overcast
11:09 AM 75.2 °F - 69.8 °F 83% 29.69 in 10.0 mi SW 12.7 mph - N/A   Overcast
11:53 AM 77.0 °F - 70.0 °F 79% 29.68 in 10.0 mi SW 10.4 mph - N/A   Overcast
12:36 PM 80.6 °F 84.6 °F 71.6 °F 74% 29.71 in 10.0 mi SW 11.5 mph - N/A   Mostly Cloudy
12:53 PM 79.0 °F - 70.0 °F 74% 29.69 in 10.0 mi SW 11.5 mph - N/A   Mostly Cloudy
1:05 PM 80.6 °F 84.6 °F 71.6 °F 74% 29.72 in 10.0 mi SSW 11.5 mph - N/A   Mostly Cloudy
1:53 PM 81.0 °F 84.4 °F 70.0 °F 69% 29.70 in 10.0 mi SSW 17.3 mph - N/A   Clear
2:53 PM 80.1 °F 82.9 °F 69.1 °F 69% 29.71 in 10.0 mi SSW 17.3 mph 23.0 mph N/A   Clear
3:16 PM 78.8 °F - 69.8 °F 74% 29.73 in 10.0 mi SSW 15.0 mph - N/A Thunderstorm Scattered Clouds
3:44 PM 80.6 °F 84.6 °F 71.6 °F 74% 29.71 in 10.0 mi South 9.2 mph - N/A   Partly Cloudy
3:53 PM 79.0 °F - 70.0 °F 74% 29.71 in 10.0 mi SSW 8.1 mph - N/A   Scattered Clouds
4:08 PM 78.8 °F - 69.8 °F 74% 29.73 in 10.0 mi South 9.2 mph - N/A   Mostly Cloudy
4:28 PM 78.8 °F - 71.6 °F 78% 29.70 in 6.0 mi SE 6.9 mph - 0.02 in Rain Light Rain
4:53 PM 78.1 °F - 71.1 °F 79% 29.70 in 10.0 mi South 12.7 mph 20.7 mph 0.02 in   Mostly Cloudy
5:42 PM 77.0 °F - 71.6 °F 83% 29.73 in 9.0 mi SSW 9.2 mph - N/A   Mostly Cloudy
5:53 PM 77.0 °F - 70.0 °F 79% 29.71 in 9.0 mi SW 16.1 mph - N/A   Mostly Cloudy
6:00 PM 75.2 °F - 69.8 °F 83% 29.75 in 9.0 mi SW 11.5 mph - N/A   Scattered Clouds
6:08 PM 75.2 °F - 69.8 °F 83% 29.74 in 9.0 mi SSW 12.7 mph - N/A Thunderstorm Thunderstorm
6:46 PM 73.4 °F - 69.8 °F 88% 29.75 in 2.5 mi SSW 12.7 mph - 0.08 in Rain , Thunderstorm Thunderstorms and Rain
6:53 PM 73.0 °F - 70.0 °F 90% 29.72 in 1.8 mi South 8.1 mph - 0.14 in Rain , Thunderstorm Heavy Thunderstorms and Rain
6:59 PM 73.4 °F - 69.8 °F 88% 29.74 in 2.0 mi SW 9.2 mph - 0.12 in Rain , Thunderstorm Light Thunderstorms and Rain
7:07 PM 71.6 °F - 66.2 °F 83% 29.73 in 8.0 mi WSW 5.8 mph - 0.12 in Rain , Thunderstorm Light Thunderstorms and Rain
7:14 PM 71.6 °F - 66.2 °F 83% 29.71 in 10.0 mi North 6.9 mph - 0.13 in Rain , Thunderstorm Light Thunderstorms and Rain
7:28 PM 71.6 °F - 69.8 °F 94% 29.79 in 1.8 mi SSW 15.0 mph - 0.20 in Rain , Thunderstorm Heavy Thunderstorms and Rain
7:53 PM 63.0 °F - 55.9 °F 78% 29.80 in 1.5 mi West 9.2 mph 20.7 mph 0.99 in Rain , Thunderstorm Heavy Thunderstorms and Rain
7:59 PM 62.6 °F - 57.2 °F 82% 29.80 in 3.0 mi WSW 12.7 mph - 0.08 in Rain , Thunderstorm Thunderstorms and Rain
8:37 PM 64.4 °F - 57.2 °F 77% 29.70 in 10.0 mi South 23.0 mph 28.8 mph 0.12 in   Scattered Clouds
8:53 PM 64.9 °F - 57.0 °F 75% 29.70 in 10.0 mi South 17.3 mph 25.3 mph 0.12 in   Clear
9:53 PM 64.0 °F - 60.1 °F 87% 29.74 in 10.0 mi NE 9.2 mph - N/A   Partly Cloudy
10:22 PM 66.2 °F - 62.6 °F 88% 29.75 in 10.0 mi ESE 6.9 mph 23.0 mph 0.00 in Rain Light Rain
10:53 PM 66.0 °F - 63.0 °F 90% 29.75 in 8.0 mi NE 5.8 mph - 0.02 in Rain Light Rain
11:20 PM 64.4 °F - 62.6 °F 94% 29.82 in 8.0 mi NNE 4.6 mph - 0.00 in Rain Light Rain
11:32 PM 64.4 °F - 62.6 °F 94% 29.83 in 7.0 mi ENE 5.8 mph - 0.02 in Rain , Thunderstorm Light Rain
11:53 PM 66.0 °F - 62.1 °F 87% 29.82 in 6.0 mi SSW 10.4 mph 16.1 mph 0.09 in Rain , Thunderstorm Light Thunderstorms and Rain